[[{"header":{"parameterUnit":"m.s-1","parameterCategory":1,"la1":30.2991,"la2":30.254,"lo1":-89.0895,"lo2":-89.0444,"dy":0.0017,"dx":0.0017,"nx":28,"ny":28,"refTime":"2024-07-14T03:00:00:Z","depth":0,"parameterNumber":2,"parameterNumberName":"U-component_of_WINDS"},"data":[0,0,0,0,0,0,0,0,0,0,0,0,0,0,0,0,0,0,0,0,0,0,0,0,0,0,0,0,0,0,0,0,0,0,0,0,0,0,0,0,0,0,0,0,0,0,0,0,0,0,0,0,0,0,0,0,0,0,2.8648,2.8648,0,2.8633,2.8633,2.8633,2.8517,2.8514,2.8511,2.8509,2.8494,2.8496,2.8498,0,0,0,0,0,0,0,0,0,0,0,0,0,2.8577,2.8579,2.8648,2.8648,2.8648,2.8633,2.8633,2.8633,2.8517,2.8514,2.8511,2.8507,2.8493,2.8496,2.8498,0,0,0,0,0,0,0,0,0,0,0,0,0,2.859,2.858,2.8648,2.8588,2.8583,2.8633,2.8633,2.8632,2.8518,2.8514,2.851,2.8506,2.8492,2.8495,2.8499,2.8605,0,0,2.8509,2.8511,0,0,0,0,0,0,0,0,2.8589,2.8593,2.8597,2.8593,2.8587,2.8572,2.8602,2.8623,2.8519,2.8543,2.8508,2.8504,2.8523,2.8524,2.8531,2.8604,2.8604,2.8509,2.8512,2.8513,2.8514,0,0,0,0,0,0,0,2.8589,2.8593,2.8642,2.8598,2.8591,2.8562,2.856,2.8606,2.8557,2.854,2.8532,2.8532,2.852,2.8528,2.8529,2.8604,2.8509,2.8512,2.8515,2.8516,2.8762,2.8767,0,0,0,0,0,0,2.8596,2.8593,2.8642,2.8641,2.8577,2.8567,2.8564,2.8581,2.8556,2.8549,2.8535,2.8526,2.8524,2.8526,2.8528,2.8649,2.8513,2.8516,2.8518,2.8758,2.8763,2.8768,0,0,0,0,0,0,2.8595,2.8602,2.8643,2.8615,2.8618,2.8573,2.8593,2.8583,2.8591,2.8553,2.8543,2.8552,2.8521,2.8524,2.8586,2.8647,2.8518,2.8521,2.8753,2.876,2.8766,2.8893,0,0,0,0,0,0,2.8593,2.8602,2.8642,2.8617,2.862,2.8702,2.8597,2.8586,2.8597,2.8585,2.8566,2.8559,2.8517,2.8582,2.859,2.8649,2.8523,2.8747,2.8756,2.8764,2.8883,2.8903,2.8921,0,0,0,0,0,2.8591,2.8679,2.8644,2.8651,2.8669,2.8705,2.8707,2.8657,2.8602,2.8642,2.8617,2.8559,2.864,2.8589,2.8597,2.8659,2.8743,2.8753,2.8763,2.8875,2.8899,2.892,0,0,0,0,0,0,2.8712,2.8674,2.8636,2.8717,2.8716,2.8686,2.8734,2.8686,2.8699,2.8687,2.8626,2.8623,2.8694,2.8683,2.8628,2.876,2.8681,2.8694,2.8764,2.8787,2.8805,2.8805,2.8526,0,0,0,0,0,2.8748,2.8781,2.8746,2.8822,2.8823,2.8779,2.8793,2.8755,2.8751,2.8749,2.8729,2.8727,2.8752,2.8769,2.879,2.8882,2.8875,2.8928,2.8947,2.8963,2.8973,2.9019,2.9042,2.8802,2.8801,2.8801,0,0,2.8823,2.8807,2.8831,2.8846,2.884,2.8874,2.8779,2.882,2.8845,2.8756,2.8812,2.8799,2.8792,2.887,2.8903,2.8863,2.9038,2.8976,2.8988,2.899,2.9032,2.9055,2.9075,2.8808,2.8807,2.8806,0,0,2.8977,2.8969,2.9029,2.9025,2.9017,2.8988,2.9003,2.898,2.8967,2.9024,2.8957,2.8986,2.9031,2.9028,2.9033,2.9187,2.9133,2.9196,2.9292,2.9338,2.9357,2.9373,2.9425,2.9445,2.9207,2.9207,2.9207,0,2.907,2.912,2.9067,2.9112,2.912,2.9041,2.9101,2.9101,2.91,2.9107,2.9063,2.9116,2.9106,2.9181,2.9219,2.9226,2.924,2.9196,2.9358,2.9374,2.9389,2.9438,2.9458,2.9214,2.9213,2.9213,2.9212,0,2.9235,2.927,2.9321,2.9321,2.9335,2.9389,2.9343,2.9364,2.9326,2.9301,2.9359,2.9345,2.9361,2.9377,2.934,2.9447,2.9421,2.9369,2.9288,2.942,2.9465,2.9484,2.9225,2.9222,2.922,2.9218,0,0,2.9461,2.9432,2.9451,2.945,2.9436,2.9462,2.9512,2.9527,2.9545,2.9549,2.9587,2.9627,2.9578,2.9584,2.9546,2.9587,2.9707,2.9529,2.9528,2.956,2.9821,2.9859,2.9881,2.9673,2.9677,2.9679,2.9821,0,2.9606,2.9688,2.9642,2.973,2.9761,2.9688,2.9731,2.9727,2.9706,2.9729,2.9706,2.9734,2.9669,2.9671,2.9708,2.9685,2.9758,2.9674,2.9707,2.9709,2.9708,2.9905,2.9945,3.0079,2.9838,2.9841,2.9844,0,2.9785,2.9795,2.9886,2.9865,2.9877,2.9916,2.9926,2.995,2.9944,2.9926,2.9933,2.9886,2.9933,2.9856,2.9919,2.9863,2.9875,2.9865,2.9869,2.9868,2.9782,2.9906,3.0121,3.014,2.9871,2.9869,2.9867,0,2.9937,2.9974,3.0033,3.0035,3.0012,3.0042,3.0034,3.0024,3.0036,3.0045,3.0052,3.0067,3.0075,3.0088,3.0046,2.9994,3.0114,3.0034,3.0099,3.01,3.0124,3.0123,3.0341,3.0138,3.0138,3.0137,3.0137,0,3.0102,3.016,3.01,3.0136,3.0199,3.0147,3.021,3.0195,3.0187,3.0218,3.0157,3.0188,3.0132,3.0158,3.0126,3.0182,3.0187,3.0173,3.0163,3.0176,3.0178,3.018,3.0168,3.0143,3.0141,3.014,3.014,0,3.028,3.0243,3.0302,3.0277,3.0272,3.0319,3.0297,3.0329,3.0305,3.0345,3.0352,3.0313,3.034,3.03,3.0323,3.0302,3.0378,3.0356,3.038,3.0372,3.0438,3.0431,3.0662,3.0689,3.0472,3.0475,3.0476,0,3.0386,3.0429,3.0408,3.0424,3.042,3.0448,3.0459,3.041,3.0425,3.0422,3.0454,3.0476,3.049,3.0537,3.051,3.0528,3.0503,3.0583,3.0505,3.0517,3.0501,3.0497,3.05,3.0598,3.0601,3.0603,3.0605,0,3.0576,3.0556,3.0575,3.0588,3.0603,3.0611,3.0614,3.0632,3.058,3.06,3.0626,3.0637,3.0661,3.0682,3.0693,3.0685,3.0636,3.063,3.0645,3.0657,3.0668,3.066,3.042,3.0624,3.0622,3.0621,3.0619,3.0619,3.0719,3.0753,3.0743,3.0766,3.0764,3.0769,3.0797,3.0776,3.0797,3.0811,3.0782,3.0816,3.0809,3.0818,3.0816,3.0841,3.0806,3.0829,3.0834,3.084,3.0849,3.0667,3.0843,3.0843,3.0842,3.0842,3.0841,0,3.0903,3.0894,3.0916,3.0922,3.094,3.0894,3.0895,3.0913,3.0944,3.0942,3.0957,3.0987,3.1009,3.0985,3.1002,3.1027,3.1005,3.1032,3.1028,3.1027,3.088,3.0864,3.105,3.105,3.105,3.105,3.105,3.105,3.1001,3.1055,3.1034,3.1086,3.1076,3.1108,3.1113,3.1117,3.1115,3.1151,3.1168,3.1153,3.1142,3.1158,3.1175,3.1167,3.1175,3.121,3.1195,3.1058,3.1037,3.1018,3.1002,3.1213,3.1214,3.1339,3.134,3.1341]},{"header":{"parameterUnit":"m.s-1","parameterCategory":1,"la1":30.2991,"la2":30.254,"lo1":-89.0895,"lo2":-89.0444,"dy":0.0017,"dx":0.0017,"nx":28,"ny":28,"refTime":"2024-07-14T03:00:00:Z","depth":0,"parameterNumber":3,"parameterNumberName":"V-component_of_WINDS"},"data":[0,0,0,0,0,0,0,0,0,0,0,0,0,0,0,0,0,0,0,0,0,0,0,0,0,0,0,0,0,0,0,0,0,0,0,0,0,0,0,0,0,0,0,0,0,0,0,0,0,0,0,0,0,0,0,0,0,0,2.2672,2.2673,0,2.2745,2.2746,2.2746,2.275,2.2749,2.2748,2.2747,2.2818,2.282,2.2823,0,0,0,0,0,0,0,0,0,0,0,0,0,2.2533,2.2535,2.2672,2.2673,2.2674,2.2745,2.2746,2.2747,2.275,2.2749,2.2748,2.2747,2.2817,2.282,2.2823,0,0,0,0,0,0,0,0,0,0,0,0,0,2.2598,2.2536,2.2672,2.2684,2.2686,2.2745,2.2746,2.2747,2.275,2.2749,2.2747,2.2746,2.2816,2.2819,2.2823,2.2874,0,0,2.2836,2.2837,0,0,0,0,0,0,0,0,2.2594,2.2603,2.2682,2.2684,2.2686,2.2737,2.2722,2.2789,2.275,2.2726,2.2747,2.2746,2.2791,2.2797,2.2814,2.2877,2.288,2.2836,2.2838,2.284,2.2841,0,0,0,0,0,0,0,2.259,2.26,2.2701,2.2683,2.2685,2.2685,2.2693,2.2735,2.2765,2.2728,2.2728,2.2737,2.2792,2.281,2.2815,2.2881,2.2836,2.2839,2.2842,2.2843,2.2987,2.2988,0,0,0,0,0,0,2.2583,2.2596,2.2699,2.2703,2.2636,2.2688,2.2697,2.2722,2.2764,2.277,2.2738,2.2737,2.2804,2.2811,2.2818,2.2878,2.284,2.2844,2.2846,2.2986,2.2987,2.2989,0,0,0,0,0,0,2.258,2.2592,2.2696,2.265,2.2663,2.2692,2.272,2.2724,2.2741,2.2772,2.2777,2.275,2.2803,2.2812,2.286,2.288,2.2846,2.2849,2.2984,2.2986,2.2988,2.2999,0,0,0,0,0,0,2.2576,2.2591,2.2612,2.265,2.2665,2.2737,2.2721,2.2726,2.2749,2.2748,2.2785,2.279,2.2803,2.2854,2.2863,2.2885,2.2852,2.2982,2.2985,2.2987,2.2997,2.3001,2.3005,0,0,0,0,0,2.2571,2.2611,2.2613,2.2625,2.2692,2.2739,2.2747,2.2762,2.275,2.277,2.279,2.2789,2.2877,2.2858,2.287,2.2893,2.2981,2.2984,2.2987,2.2995,2.3,2.3005,0,0,0,0,0,0,2.2573,2.2617,2.2619,2.2673,2.2702,2.2739,2.2765,2.2767,2.28,2.2797,2.2813,2.2821,2.2868,2.2885,2.2864,2.2943,2.2927,2.2933,2.2929,2.2935,2.2939,2.2933,2.2856,0,0,0,0,0,2.258,2.2616,2.2652,2.2696,2.2711,2.2735,2.2756,2.2765,2.2796,2.2808,2.2831,2.2859,2.2893,2.2915,2.2948,2.3,2.3007,2.3021,2.3025,2.3029,2.3033,2.3059,2.3066,2.2999,2.2999,2.2999,0,0,2.2595,2.2623,2.2644,2.2697,2.2721,2.2756,2.2746,2.2784,2.2809,2.2813,2.2859,2.2877,2.291,2.2959,2.2982,2.2975,2.3053,2.3033,2.3035,2.3037,2.3063,2.3069,2.3075,2.3001,2.3001,2.3001,0,0,2.2638,2.2664,2.2703,2.2727,2.2764,2.278,2.2789,2.2826,2.2838,2.2885,2.2888,2.2919,2.2977,2.3,2.3019,2.3071,2.3071,2.3082,2.3102,2.3128,2.3133,2.3138,2.3154,2.3161,2.3086,2.3086,2.3086,0,2.2651,2.2706,2.2723,2.2761,2.2783,2.2789,2.2828,2.285,2.2895,2.2909,2.2902,2.2975,2.2997,2.3051,2.3064,2.308,2.3089,2.3077,2.3131,2.3136,2.3141,2.3157,2.3163,2.3087,2.3087,2.3087,2.3087,0,2.2718,2.2756,2.2783,2.2827,2.2853,2.2891,2.2912,2.2936,2.2942,2.2958,2.3005,2.3033,2.3071,2.3085,2.3091,2.3139,2.3133,2.3128,2.3113,2.3148,2.3163,2.3169,2.3088,2.3088,2.3088,2.3087,0,0,2.2765,2.2818,2.2827,2.2847,2.2887,2.2916,2.2954,2.2992,2.3011,2.3042,2.3073,2.3122,2.3118,2.3139,2.3149,2.3172,2.3209,2.3164,2.3165,2.3169,2.3261,2.3263,2.327,2.321,2.3211,2.3212,2.3257,0,2.2811,2.288,2.2896,2.2954,2.2987,2.2994,2.3026,2.3054,2.307,2.31,2.3118,2.3152,2.3145,2.3158,2.3181,2.3199,2.3227,2.3197,2.3236,2.3237,2.3226,2.3278,2.3281,2.3323,2.3264,2.3265,2.3266,0,2.2875,2.2908,2.2969,2.3004,2.3019,2.3048,2.3084,2.3114,2.3144,2.3154,2.3179,2.3186,2.3224,2.3208,2.3259,2.3238,2.3255,2.3266,2.3268,2.3271,2.3252,2.328,2.3336,2.3342,2.3275,2.3275,2.3274,0,2.29,2.2959,2.3004,2.302,2.3063,2.3083,2.3102,2.3132,2.3153,2.3184,2.3198,2.3233,2.3251,2.3277,2.3293,2.328,2.3342,2.3328,2.335,2.3349,2.3361,2.336,2.3418,2.3375,2.3375,2.3375,2.3375,0,2.2949,2.2986,2.3015,2.3042,2.3083,2.3101,2.314,2.3159,2.3185,2.3215,2.3223,2.325,2.327,2.3299,2.3311,2.3351,2.3359,2.3367,2.337,2.3365,2.3364,2.3376,2.3372,2.3377,2.3376,2.3376,2.3376,0,2.2983,2.3005,2.3053,2.309,2.31,2.3128,2.3159,2.3184,2.3201,2.3238,2.3248,2.3273,2.3308,2.3327,2.3371,2.3379,2.3422,2.3424,2.3412,2.3413,2.3433,2.343,2.35,2.3509,2.3461,2.3462,2.3462,0,2.3012,2.3041,2.3081,2.3102,2.3121,2.3154,2.3177,2.3195,2.3217,2.3255,2.3275,2.3311,2.334,2.3396,2.3417,2.345,2.3452,2.3474,2.3456,2.3451,2.345,2.3447,2.3449,2.3476,2.3477,2.3477,2.3477,0,2.3061,2.307,2.3103,2.3139,2.3165,2.3194,2.3223,2.3239,2.3262,2.3287,2.3323,2.3346,2.3391,2.3425,2.346,2.3477,2.348,2.3483,2.3489,2.3484,2.3475,2.3479,2.3418,2.3481,2.348,2.348,2.348,2.348,2.3092,2.3117,2.3149,2.3185,2.3208,2.3235,2.326,2.3281,2.3312,2.335,2.3359,2.3397,2.3426,2.3473,2.3492,2.352,2.3516,2.3526,2.3528,2.3529,2.3529,2.3473,2.3527,2.3527,2.3527,2.3527,2.3527,0,2.314,2.3161,2.3193,2.3233,2.3261,2.3263,2.3295,2.3317,2.3351,2.3378,2.3407,2.3448,2.3482,2.3506,2.354,2.3559,2.3561,2.3567,2.3564,2.3568,2.3532,2.3523,2.3564,2.3564,2.3564,2.3564,2.3564,2.3564,2.3168,2.321,2.3223,2.3276,2.3297,2.3335,2.3352,2.3376,2.3398,2.3444,2.3472,2.3488,2.3514,2.355,2.358,2.3586,2.3597,2.3603,2.3609,2.3575,2.3571,2.3567,2.3558,2.3606,2.3606,2.3642,2.3642,2.3642]}]]